Location: Bayshore Village Mobile Home Park
(26.6945°N, 81.8642°W)
Time: 00:22:26
(UTC+00:00)

ATLAS 5 CENTAUR R/B - Pass Details

Date: 17 June 2021
Orbit: 510 x 1148 km, 63.4° (Epoch: 28 July)

Event Time Altitude Azimuth Distance (km) Brightness Sun altitude
Exits shadow 08:30:26 11° 316° (NW) 1,708 3.8 -23.4°
Drops below altitude 10° 08:31:15 10° 328° (NNW) 1,795 4.1 -23.2°
Sets 08:35:06 0° 4° (N) 2,795 5.6 -22.6°
